QPF
0.00 0.00 0.00 0.00 0.00 0.00 0.00 0.00 0.00 0.00 0.00 0.00 0.00 0.00 0.00 0.00 0.00 0.00 0.00 0.00 0.00 0.00 0.00 0.00 0.00 0.00 0.00 0.00 0.00 0.00 0.00 0.00 0.00 0.00 0.00 0.00 0.00 0.00 0.00 0.00 0.00 0.00 0.00 0.00 0.00
0.00 0.00 0.00 0.00 0.00 0.00 0.00 0.00 0.00 0.00 0.00 0.00 0.00 0.00 0.00 0.00 0.00 0.00 0.00 0.00 0.00 0.00 0.00 0.00 0.00 0.00 0.00 0.00 0.00 0.01 0.00 0.00 0.00 0.00 0.00 0.00 0.00 0.00 0.00 0.00 0.00 0.00 0.00 0.00 0.00
0.00 0.00 0.00 0.00 0.00 0.00 0.00 0.00 0.00 0.00 0.00 0.00 0.00 0.00 0.00 0.00 0.00 0.00 0.00 0.00 0.00 0.00 0.00 0.00 0.00 0.00 0.00 0.00 0.00 0.00 0.00 0.00 0.00 0.00 0.00 0.00 0.00 0.00 0.00 0.00 0.00 0.00 0.00 0.00 0.00
0.00 0.00 0.00 0.00 0.00 0.00 0.00 0.00 0.00 0.00 0.00 0.00 0.00 0.00 0.00 0.00 0.00 0.00 0.00 0.00 0.00 0.00 0.00 0.00 0.00 0.00 0.00 0.00 0.00 0.00 0.00 0.00 0.00 0.00 0.00 0.00 0.00 0.00 0.00 0.00 0.00 0.00 0.00 0.00 0.00
0.00 0.00 0.00 0.00 0.00 0.00 0.00 0.00 0.00 0.00 0.00 0.00 0.00 0.00 0.00 0.00 0.00 0.00 0.00 0.00 0.00 0.00 0.00 0.00 0.00 0.00 0.00 0.00 0.00 0.00 0.00 0.00 0.00 0.00 0.00 0.00 0.00 0.00 0.00 0.00 0.00 0.00 0.00 0.00 0.00
0.00 0.00 0.00 0.00 0.00 0.00 0.00 0.00 0.00 0.00 0.00 0.00 0.00 0.00 0.00 0.00 0.00 0.00 0.00 0.00 0.00 0.00 0.00 0.00 0.00 0.00 0.00 0.00 0.00 0.00 0.00 0.00 0.00 0.00 0.00 0.00 0.00 0.00 0.00 0.00 0.00 0.00 0.00 0.00 0.00
0.00 0.00 0.00 0.00 0.00 0.00 0.00 0.00 0.00 0.00 0.00 0.00 0.00 0.00 0.00 0.00 0.00 0.00 0.00 0.00 0.00 0.00 0.00 0.00 0.00 0.00 0.00 0.00 0.00 0.00 0.00 0.00 0.00 0.00 0.00 0.00 0.00 0.00 0.00 0.00 0.00 0.00 0.00 0.00 0.00
0.00 0.00 0.00 0.00 0.00 0.00 0.00 0.00 0.00 0.00 0.00 0.00 0.00 0.00 0.00 0.00 0.00 0.00 0.00 0.00 0.00 0.00 0.00 0.00 0.00 0.00 0.00 0.00 0.00 0.00 0.00 0.00 0.00 0.00 0.00 0.00 0.00 0.00 0.00 0.00 0.00 0.00 0.00 0.00 0.00
0.00 0.00 0.00 0.00 0.00 0.00 0.00 0.00 0.00 0.00 0.00 0.00 0.00 0.00 0.00 0.00 0.00 0.00 0.00 0.00 0.00 0.00 0.00 0.00 0.00 0.00 0.00 0.00 0.00 0.00 0.00 0.00 0.00 0.00 0.00 0.00 0.00 0.00 0.00 0.00 0.00 0.00 0.00 0.00 0.00
0.00 0.00 0.00 0.00 0.00 0.00 0.00 0.00 0.00 0.00 0.00 0.00 0.00 0.00 0.00 0.00 0.00 0.00 0.00 0.00 0.00 0.00 0.00 0.00 0.02 0.01 0.00 0.00 0.00 0.02 0.00 0.01 0.00 0.00 0.00 0.00 0.00 0.00 0.00 0.00 0.00 0.00 0.00 0.00 0.00
0.00 0.00 0.00 0.00 0.00 0.00 0.00 0.00 0.00 0.00 0.00 0.00 0.00 0.00 0.00 0.00 0.00 0.00 0.00 0.00 0.00 0.00 0.00 0.00 0.00 0.01 0.00 0.00 0.00 0.02 0.01 0.00 0.00 0.00 0.00 0.00 0.00 0.00 0.00 0.00 0.00 0.00 0.00 0.00 0.00
0.00 0.00 0.00 0.00 0.00 0.00 0.00 0.00 0.00 0.00 0.00 0.00 0.00 0.00 0.00 0.00 0.00 0.00 0.00 0.00 0.00 0.00 0.00 0.00 0.00 0.01 0.00 0.00 0.00 0.00 0.00 0.00 0.00 0.00 0.00 0.00 0.00 0.00 0.00 0.00 0.00 0.00 0.00 0.00 0.00
0.00 0.00 0.00 0.00 0.00 0.00 0.00 0.00 0.00 0.00 0.00 0.00 0.00 0.00 0.00 0.00 0.00 0.00 0.00 0.00 0.00 0.00 0.00 0.00 0.00 0.01 0.01 0.01 0.00 0.00 0.00 0.00 0.00 0.00 0.00 0.00 0.00 0.00 0.00 0.00 0.00 0.00 0.00 0.00 0.00
0.00 0.00 0.00 0.00 0.00 0.00 0.00 0.00 0.00 0.00 0.00 0.00 0.00 0.00 0.00 0.00 0.00 0.00 0.00 0.00 0.00 0.00 0.00 0.00 0.00 0.00 0.02 0.00 0.00 0.00 0.01 0.00 0.00 0.00 0.00 0.00 0.00 0.00 0.00 0.00 0.00 0.00 0.00 0.00 0.00
0.00 0.00 0.00 0.00 0.00 0.00 0.00 0.00 0.00 0.00 0.00 0.00 0.00 0.00 0.00 0.00 0.00 0.00 0.00 0.00 0.00 0.00 0.00 0.00 0.00 0.00 0.00 0.00 0.00 0.00 0.02 0.00 0.00 0.00 0.00 0.00 0.00 0.00 0.00 0.00 0.00 0.00 0.00 0.00 0.00
0.00 0.00 0.00 0.00 0.00 0.00 0.00 0.00 0.00 0.00 0.00 0.00 0.00 0.00 0.00 0.00 0.00 0.00 0.00 0.00 0.00 0.00 0.00 0.00 0.00 0.00 0.00 0.01 0.02 0.03 0.02 0.01 0.00 0.00 0.00 0.00 0.00 0.00 0.00 0.00 0.00 0.00 0.00 0.00 0.00
0.00 0.00 0.00 0.00 0.00 0.00 0.00 0.00 0.00 0.00 0.00 0.00 0.00 0.00 0.00 0.00 0.00 0.00 0.00 0.00 0.00 0.00 0.00 0.00 0.00 0.00 0.01 0.05 0.07 0.02 0.01 0.04 0.02 0.00 0.00 0.00 0.00 0.00 0.00 0.00 0.00 0.00 0.00 0.00 0.00
0.00 0.00 0.00 0.00 0.00 0.00 0.00 0.00 0.00 0.00 0.00 0.00 0.00 0.00 0.00 0.00 0.00 0.00 0.00 0.00 0.00 0.00 0.00 0.00 0.00 0.00 0.00 0.04 0.05 0.02 0.02 0.01 0.00 0.00 0.00 0.00 0.00 0.00 0.00 0.00 0.00 0.00 0.00 0.00 0.00
0.00 0.00 0.00 0.00 0.00 0.00 0.00 0.00 0.00 0.00 0.00 0.00 0.00 0.00 0.00 0.00 0.00 0.00 0.00 0.00 0.00 0.00 0.00 0.00 0.00 0.00 0.01 0.02 0.11 0.03 0.01 0.01 0.00 0.00 0.00 0.00 0.00 0.00 0.00 0.00 0.00 0.00 0.00 0.00 0.00
0.00 0.00 0.00 0.00 0.00 0.00 0.00 0.00 0.00 0.00 0.00 0.00 0.00 0.00 0.00 0.00 0.00 0.00 0.00 0.00 0.00 0.00 0.00 0.00 0.00 0.00 0.02 0.04 0.12 0.07 0.02 0.00 0.00 0.00 0.00 0.00 0.00 0.00 0.00 0.00 0.00 0.00 0.00 0.00 0.00
0.00 0.00 0.00 0.00 0.00 0.00 0.00 0.00 0.00 0.00 0.00 0.00 0.00 0.00 0.00 0.00 0.00 0.00 0.00 0.00 0.00 0.00 0.00 0.00 0.00 0.00 0.00 0.00 0.02 0.02 0.01 0.00 0.00 0.00 0.00 0.00 0.00 0.00 0.00 0.00 0.00 0.00 0.00 0.00 0.00
0.00 0.00 0.00 0.00 0.00 0.00 0.00 0.00 0.00 0.00 0.00 0.00 0.00 0.00 0.00 0.00 0.00 0.00 0.00 0.00 0.00 0.00 0.00 0.00 0.00 0.00 0.00 0.00 0.00 0.00 0.00 0.00 0.00 0.00 0.00 0.00 0.00 0.00 0.00 0.00 0.00 0.00 0.00 0.00 0.00
0.00 0.00 0.00 0.00 0.00 0.00 0.00 0.00 0.00 0.00 0.00 0.00 0.00 0.00 0.00 0.00 0.00 0.00 0.00 0.00 0.00 0.00 0.00 0.00 0.00 0.00 0.00 0.00 0.00 0.00 0.00 0.00 0.00 0.00 0.00 0.00 0.00 0.00 0.00 0.00 0.00 0.00 0.00 0.00 0.00
0.00 0.00 0.00 0.00 0.00 0.00 0.00 0.00 0.00 0.00 0.00 0.00 0.00 0.00 0.00 0.00 0.00 0.00 0.00 0.00 0.00 0.00 0.00 0.00 0.00 0.00 0.00 0.00 0.00 0.00 0.00 0.00 0.00 0.00 0.00 0.00 0.00 0.00 0.00 0.00 0.00 0.00 0.00 0.00 0.00
0.00 0.00 0.00 0.00 0.00 0.00 0.00 0.00 0.00 0.00 0.00 0.00 0.00 0.00 0.00 0.00 0.00 0.00 0.00 0.00 0.00 0.00 0.00 0.00 0.00 0.00 0.00 0.00 0.00 0.00 0.00 0.00 0.00 0.00 0.00 0.00 0.00 0.00 0.00 0.00 0.00 0.00 0.00 0.00 0.00
0.00 0.00 0.00 0.00 0.00 0.00 0.00 0.00 0.00 0.00 0.00 0.00 0.00 0.00 0.00 0.00 0.00 0.00 0.00 0.00 0.00 0.00 0.00 0.00 0.00 0.00 0.00 0.00 0.00 0.00 0.00 0.00 0.00 0.00 0.00 0.00 0.00 0.00 0.00 0.00 0.00 0.00 0.00 0.00 0.00
0.00 0.00 0.00 0.00 0.00 0.00 0.00 0.00 0.00 0.00 0.00 0.00 0.00 0.00 0.00 0.00 0.00 0.00 0.00 0.00 0.00 0.00 0.00 0.00 0.00 0.00 0.00 0.00 0.00 0.00 0.00 0.00 0.00 0.00 0.00 0.00 0.00 0.00 0.00 0.00 0.00 0.00 0.00 0.00 0.00
MSLP
1016.26 1015.94 1015.57 1015.14 1014.68 1014.21 1013.70 1013.23 1012.83 1012.40 1011.95 1011.59 1011.18 1010.68 1010.26 1009.86 1009.14 1008.72 1006.78 1004.23 1004.48 1005.21 1005.88 1006.59 1007.11 1007.23 1007.48 1007.40 1007.41 1007.35 1006.67 1005.48 1004.86 1004.52 1004.37 1004.45 1004.34 1004.96 1005.48 1005.82 1006.83 1007.69 1008.27 1008.89 1010.71
1016.26 1015.87 1015.52 1015.12 1014.66 1014.25 1013.76 1013.23 1012.83 1012.33 1011.88 1011.50 1010.94 1010.39 1009.94 1009.67 1008.81 1006.76 1003.94 1003.69 1004.24 1004.57 1005.16 1005.57 1006.13 1006.62 1006.86 1007.00 1007.22 1006.98 1006.05 1004.97 1004.58 1004.55 1004.25 1004.31 1004.22 1004.60 1005.27 1005.82 1006.99 1008.21 1009.07 1009.80 1010.77
1016.28 1015.93 1015.49 1015.08 1014.62 1014.18 1013.70 1013.18 1012.66 1012.18 1011.75 1011.29 1010.76 1010.22 1009.85 1009.52 1007.79 1004.11 1003.29 1003.46 1004.11 1004.12 1004.22 1004.68 1005.37 1005.99 1006.34 1006.63 1006.75 1006.59 1005.57 1004.93 1004.54 1004.42 1004.38 1004.12 1004.12 1004.30 1004.73 1005.38 1006.01 1007.37 1008.96 1010.00 1010.65
1016.29 1015.87 1015.38 1014.93 1014.43 1014.02 1013.55 1013.03 1012.49 1012.02 1011.56 1011.14 1010.72 1010.14 1009.61 1009.03 1006.36 1003.39 1003.21 1003.56 1004.02 1004.08 1003.99 1004.52 1005.27 1005.58 1005.88 1006.18 1006.44 1006.38 1005.24 1004.85 1004.38 1004.25 1004.26 1004.00 1004.02 1004.20 1004.40 1004.56 1005.27 1006.80 1008.37 1009.27 1010.14
1016.22 1015.79 1015.31 1014.83 1014.27 1013.70 1013.20 1012.76 1012.34 1011.89 1011.40 1010.95 1010.71 1010.19 1009.21 1007.95 1004.93 1003.30 1003.43 1003.66 1004.14 1004.12 1003.74 1004.16 1004.67 1005.01 1005.20 1005.66 1006.07 1005.91 1004.82 1004.59 1004.22 1004.04 1003.97 1004.02 1003.77 1003.83 1004.47 1005.02 1005.65 1007.04 1008.47 1009.37 1010.03
1016.07 1015.71 1015.27 1014.68 1014.07 1013.41 1012.92 1012.43 1011.95 1011.53 1011.05 1010.74 1010.52 1010.35 1009.39 1006.80 1003.60 1003.34 1003.63 1003.90 1003.77 1003.79 1003.75 1003.91 1004.03 1004.54 1005.06 1005.49 1005.55 1005.23 1004.84 1004.16 1003.80 1003.50 1003.47 1003.43 1003.64 1004.10 1004.93 1005.55 1006.44 1007.35 1008.25 1009.22 1009.79
1015.97 1015.52 1015.00 1014.40 1013.78 1013.18 1012.57 1012.12 1011.53 1010.94 1010.52 1010.17 1010.18 1010.02 1008.54 1004.97 1003.58 1003.49 1003.64 1003.54 1003.77 1003.56 1003.50 1003.75 1003.95 1004.27 1004.83 1005.19 1005.22 1005.12 1004.52 1003.56 1003.34 1003.05 1002.93 1003.07 1003.69 1004.06 1005.07 1005.78 1006.63 1007.53 1008.34 1009.14 1009.74
1015.71 1015.17 1014.62 1014.06 1013.52 1012.96 1012.29 1011.66 1011.00 1010.37 1009.78 1009.40 1009.69 1009.41 1006.66 1003.80 1003.74 1003.73 1003.66 1003.52 1003.70 1003.68 1003.50 1003.69 1004.00 1004.48 1004.95 1005.35 1005.33 1004.94 1004.44 1003.03 1002.70 1002.56 1002.66 1002.88 1003.24 1004.39 1005.35 1005.88 1006.57 1007.48 1008.12 1008.79 1009.41
1015.39 1014.87 1014.30 1013.76 1013.22 1012.64 1011.82 1011.06 1010.38 1009.85 1009.23 1009.34 1009.31 1008.47 1005.31 1003.55 1003.42 1002.68 1003.06 1003.07 1003.50 1003.75 1003.73 1003.89 1004.09 1004.53 1005.22 1005.12 1005.05 1004.75 1003.96 1003.32 1002.55 1002.49 1002.33 1002.53 1003.02 1004.35 1005.36 1005.82 1006.49 1007.21 1007.68 1008.18 1008.85
1015.04 1014.58 1014.06 1013.46 1012.91 1012.28 1011.42 1010.25 1009.79 1009.76 1009.47 1009.19 1008.52 1007.99 1004.35 1002.64 1002.17 1002.41 1002.69 1002.75 1003.08 1003.45 1003.71 1003.89 1004.33 1004.52 1004.83 1004.81 1004.19 1004.18 1003.90 1003.66 1003.03 1002.47 1002.10 1002.17 1002.90 1003.97 1004.86 1005.37 1005.98 1006.63 1007.03 1007.43 1007.90
1014.84 1014.30 1013.75 1013.19 1012.65 1012.11 1011.23 1009.82 1009.83 1009.51 1008.65 1006.51 1005.70 1004.51 1003.18 1002.38 1002.13 1001.94 1002.21 1002.48 1002.80 1003.15 1003.17 1003.84 1004.10 1003.93 1003.89 1004.39 1003.86 1004.20 1004.33 1003.91 1003.22 1002.77 1002.43 1002.10 1002.51 1003.30 1004.17 1004.73 1005.28 1005.92 1006.34 1006.60 1006.90
1014.56 1013.98 1013.37 1012.75 1012.17 1011.67 1011.43 1010.09 1009.16 1009.30 1007.43 1005.33 1004.80 1004.19 1003.21 1003.01 1002.36 1001.64 1001.84 1001.70 1002.06 1002.32 1003.27 1003.92 1003.43 1003.58 1003.86 1004.05 1004.29 1004.35 1004.39 1003.97 1003.20 1002.56 1002.64 1001.99 1001.90 1002.54 1003.37 1003.64 1003.98 1004.70 1005.19 1005.57 1006.18
1014.37 1013.75 1013.07 1012.30 1011.69 1011.42 1011.04 1009.53 1009.01 1008.71 1007.44 1004.31 1003.39 1002.70 1002.20 1002.59 1001.84 1001.23 1001.46 1001.21 1001.18 1001.74 1002.31 1002.56 1002.63 1003.10 1003.74 1003.91 1004.27 1004.45 1004.49 1004.20 1003.76 1002.86 1002.54 1002.21 1001.54 1001.95 1002.65 1003.23 1003.45 1003.78 1004.30 1004.81 1005.01
1014.13 1013.61 1013.02 1012.04 1011.63 1011.53 1010.11 1009.10 1009.09 1008.67 1006.86 1003.51 1002.41 1001.16 1001.41 1001.18 1000.76 1000.40 1000.47 1000.50 1000.96 1000.94 1001.90 1002.18 1002.35 1002.72 1003.19 1003.41 1003.73 1004.16 1004.37 1004.17 1003.66 1003.16 1002.23 1002.30 1000.92 1000.93 1001.21 1001.80 1002.20 1002.65 1003.00 1003.39 1003.79
1013.69 1013.29 1012.99 1012.82 1012.12 1011.04 1009.70 1009.48 1008.87 1008.27 1005.50 1002.03 1001.22 1000.69 1000.61 1000.17 999.55 999.58 999.75 1000.03 999.93 1000.38 1001.28 1001.39 1001.83 1002.44 1002.79 1002.90 1003.15 1004.17 1004.55 1004.12 1003.68 1003.22 1002.59 1002.04 1001.44 999.99 1000.52 1000.45 1000.49 1001.04 1001.45 1002.03 1002.36
1013.12 1012.89 1012.63 1012.21 1012.04 1010.10 1009.69 1009.36 1008.64 1007.00 1003.58 1000.97 1000.32 1000.20 1000.37 999.95 999.37 999.40 999.32 999.54 999.76 1000.14 1000.71 1001.03 1001.85 1002.04 1002.25 1002.80 1003.87 1005.60 1005.63 1004.96 1004.29 1003.51 1002.38 1001.40 1001.04 999.32 999.17 998.72 999.00 999.62 999.99 1000.51 1001.22
1012.34 1011.96 1012.04 1011.63 1010.21 1009.75 1009.50 1008.77 1007.49 1004.89 1002.18 1000.79 1000.02 999.80 999.54 999.29 999.07 998.71 998.47 998.74 998.75 999.48 999.97 1001.00 1001.45 1001.98 1002.57 1003.57 1004.42 1005.22 1005.15 1004.80 1004.12 1003.38 1001.84 1001.59 1001.02 999.07 998.45 998.19 998.23 998.30 998.75 999.34 999.97
1011.17 1010.57 1010.10 1010.38 1009.91 1010.07 1009.30 1007.81 1005.78 1003.16 1001.72 1000.61 1000.00 999.71 999.14 998.84 998.50 998.23 997.97 997.91 998.26 998.31 999.09 999.77 1001.06 1001.51 1002.15 1002.90 1003.81 1004.45 1005.14 1003.78 1002.95 1002.71 1001.79 1001.97 1000.24 998.47 997.84 997.71 997.94 998.18 998.50 998.95 999.17
1010.22 1010.10 1009.94 1009.75 1009.89 1009.97 1008.38 1006.49 1004.02 1002.90 1001.80 1000.75 1000.03 999.47 999.02 998.61 998.29 997.91 997.38 996.95 997.14 997.58 998.06 998.87 999.85 1001.22 1001.69 1002.39 1003.39 1004.39 1004.98 1004.15 1003.30 1003.47 1002.45 1001.05 999.97 998.50 997.81 997.48 997.42 997.92 998.45 998.49 998.47
1010.29 1010.02 1009.55 1009.47 1009.55 1009.36 1007.46 1005.20 1003.88 1002.83 1001.99 1001.16 1000.25 999.85 999.20 998.59 998.13 997.61 997.15 996.58 996.68 997.02 997.22 998.33 999.36 1000.77 1002.20 1002.72 1003.94 1003.91 1004.19 1004.08 1003.11 1002.21 1001.43 1000.58 999.82 998.27 997.52 997.04 997.31 997.98 998.46 998.51 998.50
1010.15 1009.55 1009.81 1009.68 1009.56 1008.29 1006.36 1004.85 1003.67 1002.76 1002.27 1001.51 1000.84 1000.22 999.76 999.09 998.33 997.55 996.63 996.58 996.02 996.66 996.95 997.51 998.26 1000.64 1001.52 1001.49 1002.19 1003.66 1003.74 1003.34 1002.40 1001.44 1000.43 999.78 998.63 997.91 997.44 997.32 997.45 998.18 998.56 999.15 999.30
1010.32 1009.46 1009.69 1009.70 1008.76 1008.01 1006.18 1004.97 1003.72 1002.58 1002.28 1001.61 1001.26 1000.78 1000.08 999.48 998.64 997.84 996.86 996.10 995.81 995.98 996.62 997.30 997.67 998.86 999.95 1000.65 1000.89 1000.84 1001.04 1001.70 1000.71 1000.84 1000.35 999.38 998.03 997.59 997.31 997.42 997.86 998.53 999.23 999.96 1000.48
1010.93 1010.00 1009.57 1009.23 1008.14 1007.19 1006.02 1004.92 1003.70 1002.74 1002.12 1001.74 1001.27 1000.95 1000.64 999.89 999.29 998.32 997.35 996.41 996.15 995.85 995.73 996.92 997.07 997.81 999.23 1000.26 1000.65 1000.17 1000.41 1000.22 1000.05 999.70 998.95 998.46 997.65 997.49 997.59 997.76 998.20 999.08 999.95 1000.38 1001.05
1011.38 1010.13 1009.20 1008.83 1008.82 1007.78 1006.77 1005.20 1003.90 1003.03 1002.43 1002.10 1001.52 1001.19 1000.85 1000.16 999.76 998.81 997.81 996.69 996.43 996.37 995.91 995.78 996.16 996.41 996.52 997.42 998.27 998.96 999.14 999.11 998.74 998.05 997.59 997.14 997.03 996.92 997.15 997.87 998.80 999.72 1000.66 1001.35 1001.82
1011.74 1011.76 1011.62 1009.66 1008.78 1008.41 1007.65 1006.23 1004.76 1003.70 1003.08 1002.71 1002.02 1001.62 1001.35 1000.75 999.95 999.23 998.49 997.47 996.30 996.47 996.56 996.10 995.79 996.28 996.20 996.51 996.93 997.00 997.10 997.45 997.53 997.08 996.50 996.23 996.45 996.62 996.82 997.92 998.59 999.53 1000.82 1001.62 1002.33
1013.16 1013.25 1012.28 1010.99 1009.90 1008.71 1007.76 1006.85 1005.89 1005.09 1004.36 1003.10 1002.81 1002.46 1002.02 1001.35 1000.15 999.53 999.19 998.28 997.02 996.84 996.62 996.66 996.21 996.25 995.87 995.87 995.80 995.81 995.86 995.87 996.03 995.91 995.88 996.21 996.30 996.51 996.87 997.88 998.63 999.11 1000.10 1001.18 1002.17
1014.51 1014.25 1013.75 1011.48 1010.17 1009.06 1008.17 1007.65 1006.99 1006.75 1004.80 1004.28 1003.89 1003.34 1002.04 1001.29 1001.04 1000.33 999.85 999.10 998.38 998.20 997.20 996.64 996.59 996.37 995.69 995.63 995.68 994.72 993.92 994.63 995.07 995.35 995.56 995.67 995.91 995.74 997.09 997.61 998.09 998.96 1000.09 1001.22 1002.43
Thickness
5739 5742 5745 5749 5753 5758 5763 5768 5773 5777 5781 5785 5789 5794 5798 5804 5812 5817 5828 5858 5860 5858 5854 5845 5837 5834 5833 5828 5831 5830 5809 5809 5817 5817 5823 5838 5835 5843 5847 5834 5833 5831 5829 5834 5824
5734 5738 5742 5745 5750 5755 5760 5765 5770 5774 5778 5782 5788 5793 5798 5803 5810 5823 5858 5864 5862 5862 5851 5841 5831 5833 5823 5824 5823 5817 5813 5823 5838 5835 5833 5838 5842 5842 5836 5834 5824 5822 5826 5828 5824
5730 5733 5737 5742 5747 5752 5757 5762 5767 5772 5776 5781 5786 5791 5796 5801 5813 5837 5860 5862 5859 5863 5860 5854 5845 5835 5821 5826 5822 5819 5820 5835 5840 5844 5844 5841 5842 5851 5841 5829 5838 5829 5822 5822 5822
5726 5730 5735 5739 5745 5750 5754 5760 5765 5770 5774 5779 5782 5788 5794 5802 5794 5847 5857 5857 5857 5860 5857 5845 5835 5824 5818 5815 5825 5813 5835 5839 5844 5848 5843 5840 5850 5843 5848 5850 5858 5846 5836 5830 5824
5723 5727 5732 5737 5743 5748 5753 5757 5762 5767 5772 5776 5779 5784 5795 5798 5815 5852 5853 5853 5852 5851 5846 5837 5828 5826 5818 5821 5822 5816 5835 5841 5847 5849 5848 5850 5846 5849 5846 5854 5859 5847 5835 5828 5828
5719 5723 5728 5733 5739 5745 5750 5755 5761 5765 5771 5774 5776 5780 5788 5784 5844 5849 5849 5845 5845 5843 5841 5841 5835 5837 5823 5819 5817 5830 5834 5841 5847 5851 5852 5847 5847 5849 5845 5851 5845 5841 5835 5831 5830
5716 5720 5725 5730 5736 5742 5747 5753 5760 5765 5770 5774 5776 5779 5785 5802 5840 5844 5843 5841 5842 5842 5835 5844 5845 5833 5828 5815 5825 5826 5823 5843 5846 5852 5851 5858 5839 5840 5847 5848 5840 5838 5837 5832 5831
5713 5718 5723 5728 5733 5738 5744 5753 5759 5765 5772 5776 5776 5779 5788 5828 5836 5834 5836 5835 5840 5842 5842 5846 5846 5831 5822 5819 5815 5813 5821 5827 5847 5852 5855 5853 5830 5841 5847 5844 5838 5839 5838 5835 5834
5711 5716 5721 5725 5730 5735 5743 5753 5760 5765 5771 5773 5775 5780 5788 5830 5823 5835 5835 5826 5828 5831 5837 5841 5836 5820 5815 5801 5798 5807 5801 5813 5830 5852 5852 5850 5837 5841 5847 5845 5839 5839 5842 5841 5838
5709 5713 5717 5723 5728 5733 5741 5754 5759 5761 5765 5769 5776 5772 5803 5812 5827 5830 5834 5831 5818 5819 5817 5818 5812 5803 5799 5796 5786 5795 5804 5809 5813 5838 5848 5843 5839 5842 5845 5847 5844 5843 5846 5847 5845
5703 5709 5714 5719 5724 5728 5738 5752 5757 5758 5763 5782 5786 5793 5803 5819 5828 5823 5828 5819 5816 5808 5795 5806 5792 5789 5800 5805 5812 5803 5802 5804 5823 5840 5836 5839 5840 5842 5848 5848 5847 5845 5848 5851 5852
5698 5702 5708 5716 5722 5726 5729 5748 5751 5751 5761 5782 5784 5788 5802 5805 5795 5813 5825 5805 5801 5791 5795 5789 5785 5804 5808 5809 5797 5804 5798 5804 5825 5840 5833 5840 5842 5850 5849 5853 5857 5854 5855 5858 5858
5692 5697 5702 5710 5718 5721 5727 5742 5747 5749 5751 5777 5787 5791 5798 5799 5794 5801 5812 5808 5799 5791 5795 5790 5804 5809 5801 5800 5790 5795 5790 5798 5803 5828 5838 5835 5838 5841 5851 5855 5861 5865 5867 5866 5866
5687 5690 5695 5704 5712 5710 5728 5738 5739 5743 5741 5772 5780 5795 5798 5804 5792 5816 5820 5811 5795 5793 5794 5796 5812 5802 5797 5793 5802 5785 5806 5808 5811 5811 5806 5832 5815 5842 5855 5853 5860 5867 5871 5872 5874
5682 5685 5687 5688 5695 5707 5723 5726 5734 5738 5719 5776 5781 5807 5799 5798 5809 5807 5825 5809 5794 5794 5797 5795 5800 5797 5793 5800 5807 5783 5802 5807 5813 5810 5812 5819 5815 5851 5852 5852 5865 5875 5879 5883 5887
5677 5680 5680 5685 5684 5705 5710 5717 5726 5723 5716 5765 5782 5780 5778 5790 5799 5802 5805 5815 5812 5794 5798 5802 5811 5809 5809 5813 5803 5788 5785 5792 5800 5802 5790 5823 5819 5839 5852 5871 5880 5885 5889 5892 5892
5675 5679 5677 5678 5697 5698 5703 5713 5709 5709 5756 5757 5767 5776 5776 5777 5783 5791 5790 5786 5783 5765 5771 5783 5792 5804 5807 5784 5788 5780 5779 5757 5763 5773 5792 5817 5811 5844 5868 5882 5889 5894 5898 5901 5902
5676 5681 5684 5680 5686 5687 5695 5704 5691 5729 5736 5759 5763 5765 5766 5777 5781 5785 5786 5781 5796 5797 5783 5773 5758 5789 5804 5797 5784 5779 5775 5780 5762 5771 5801 5801 5808 5847 5879 5893 5898 5900 5902 5904 5905
5676 5677 5678 5678 5678 5679 5695 5688 5712 5719 5736 5744 5756 5753 5758 5772 5777 5780 5785 5792 5800 5803 5779 5776 5779 5797 5805 5804 5798 5777 5764 5797 5782 5772 5778 5804 5827 5862 5879 5884 5896 5897 5897 5901 5909
5668 5669 5677 5671 5672 5675 5689 5692 5708 5719 5730 5737 5733 5745 5744 5759 5766 5773 5777 5800 5797 5807 5817 5795 5772 5790 5781 5794 5782 5781 5787 5772 5779 5763 5765 5794 5801 5834 5863 5880 5890 5890 5890 5899 5907
5663 5678 5665 5661 5663 5676 5682 5691 5700 5715 5720 5725 5727 5732 5740 5746 5759 5767 5782 5793 5811 5801 5813 5805 5796 5770 5781 5782 5780 5767 5766 5775 5791 5792 5782 5784 5811 5852 5862 5875 5880 5884 5889 5891 5897
5655 5669 5655 5653 5666 5655 5674 5681 5694 5707 5715 5721 5726 5729 5735 5745 5750 5760 5772 5794 5812 5809 5789 5802 5797 5771 5776 5793 5803 5804 5790 5790 5785 5772 5789 5799 5815 5861 5868 5875 5879 5879 5881 5883 5884
5648 5651 5649 5649 5657 5660 5668 5675 5688 5699 5706 5709 5714 5723 5731 5738 5737 5753 5768 5796 5801 5803 5798 5794 5785 5763 5762 5774 5783 5786 5787 5798 5804 5803 5791 5789 5808 5858 5860 5865 5873 5869 5869 5874 5874
5639 5650 5649 5648 5641 5646 5649 5665 5675 5695 5699 5706 5714 5721 5724 5731 5741 5747 5760 5786 5795 5796 5801 5809 5797 5782 5772 5785 5797 5779 5789 5799 5805 5796 5805 5809 5821 5839 5852 5852 5855 5853 5854 5859 5862
5629 5625 5619 5636 5640 5634 5638 5650 5664 5673 5687 5694 5703 5709 5710 5716 5730 5739 5754 5769 5793 5787 5790 5798 5779 5786 5798 5803 5800 5803 5805 5804 5795 5812 5805 5825 5823 5836 5849 5839 5851 5852 5844 5843 5844
5614 5607 5611 5618 5619 5628 5633 5642 5649 5656 5664 5682 5686 5695 5703 5708 5732 5736 5745 5757 5771 5783 5784 5785 5775 5780 5784 5802 5804 5795 5809 5815 5812 5819 5820 5821 5819 5851 5850 5845 5842 5847 5842 5838 5837
5589 5588 5588 5613 5617 5624 5628 5631 5637 5638 5662 5668 5673 5677 5696 5714 5722 5734 5744 5753 5761 5757 5773 5778 5771 5770 5768 5793 5791 5779 5810 5812 5814 5819 5818 5802 5829 5858 5839 5840 5843 5842 5837 5832 5827